sat.trackr.live / text

‹ back to catalog

STARLINK-3523

NORAD 51729 · 2022-016R

PAYLOAD ACTIVE UNKNOWN

§ Identity

Operator
Country
US
Launch date
2022-02-21
Launch site
AFETR
Launch vehicle
Mass (kg)
RCS (m²)

Purposes: comms

External: N2YO · Heavens-Above · Gunter

§ Orbital elements

Epoch: 2026-05-24T19:04:55.424352Z

Period
95.44 min
Inclination
53.2151°
Eccentricity
0.0001317
Mean motion
15.08841859 rev/d
Perigee alt
538.8 km
Apogee alt
540.6 km
Semi-major
6,917.9 km
B*
3.9220e-5
RAAN
337.4687°
Arg perigee
89.3674°
Mean anomaly
270.7469°
Rev number
23,505

§ Raw data

STARLINK-35231 51729U 22016R   26144.79508593  .00000336  00000+0  39220-4 0  99992 51729  53.2151 337.4687 0001317  89.3674 270.7469 15.08841859235059

JSON: /api/v1/satellites/51729 · /tle

For live sub-satellite position, see the globe view (requires WebGL).

§ Visibility from observer

Set your observer location to see the next 7 days of passes ≥ 10°. The values pass through the URL so the page stays shareable.

No JS? Fill the form by hand. The geolocation button needs JavaScript.